Starlink 31147

operational
NORAD ID: 58681 Int'l Des: 2023-211 Owner: SPXS Country: US Constellation: starlink
LEOCIRCULAR

Starlink 31147について

説明を読み込み中...

リアルタイム位置

3D地球を読み込み中...

次回通過

高度履歴

Altitude vs Time

uPlot chart will show altitude changes over time

軌道要素

1 58681U 23211Q 25308.08650309 -.00000277 00000-0 -53318-6 0 9990
2 58681 43.0056 74.7560 0001573 277.8925 82.1748 15.27587790103255
Epoch: Nov 4, 2025 • Age: 14 hours

現在のステータス

高度 482.2 km
速度 7.63 km/s
衛星直下点 14.31°N, 158.65°E
打ち上げ日 Dec 29, 2023
運用期間 1.8 years
タイプ internet

技術仕様

分類 Payload
質量 730.00 kg
乾燥質量 700.00 kg
総質量 730.00 kg
長さ 0.30 m
直径 4.10 m
スパン 29.00 m
形状 Box + pan
製造者 SPXS
バスタイプ Starlink V2M
フェーズステータス In Orbit
所有者/国 SPXS/US

大規模コンステレーション

Loading constellations...